| time (UTC) | temp C | wind direction | speed KPH | gust KPH | rain 1hr cm | rain 24hr cm | rain mn cm | humidity % | barometer mb |
| 20260901181212 | 21 | 80 | 1.6 | 9.7 | 0.00 | 0.00 | 0.00 | 55 | 1017.6 |
| 20260901180004 | 21 | 57 | 3.2 | 17.7 | 0.00 | 0.00 | 0.00 | 56 | 1017.2 |
| 20260901175003 | 21 | 68 | 3.2 | 11.3 | 0.00 | 0.00 | 0.00 | 56 | 1017.2 |
| 20260901174214 | 21 | 64 | 3.2 | 14.5 | 0.00 | 0.00 | 0.00 | 55 | 1017.2 |
| 20260901173003 | 21 | 79 | 4.8 | 16.1 | 0.00 | 0.00 | 0.00 | 58 | 1017.6 |
| 20260901172214 | 21 | 68 | 4.8 | 16.1 | 0.00 | 0.00 | 0.00 | 55 | 1017.6 |
| 20260901171003 | 21 | 80 | 4.8 | 14.5 | 0.00 | 0.00 | 0.00 | 58 | 1017.6 |
| 20260901170003 | 21 | 67 | 3.2 | 11.3 | 0.00 | 0.00 | 0.00 | 58 | 1017.6 |
| 20260901165004 | 21 | 55 | 3.2 | 14.5 | 0.00 | 0.00 | 0.00 | 59 | 1017.6 |
| 20260901164214 | 21 | 56 | 3.2 | 20.9 | 0.00 | 0.00 | 0.00 | 64 | 1017.2 |
| 20260901163003 | 20 | 71 | 3.2 | 12.9 | 0.00 | 0.00 | 0.00 | 71 | 1017.6 |
| 20260901162003 | 19 | 62 | 1.6 | 6.4 | 0.00 | 0.00 | 0.00 | 73 | 1017.6 |
| 20260901161003 | 18 | 314 | 1.6 | 12.9 | 0.00 | 0.00 | 0.00 | 74 | 1017.6 |
| 20260901160003 | 18 | 327 | 1.6 | 9.7 | 0.00 | 0.00 | 0.00 | 73 | 1017.6 |
| 20260901155003 | 18 | 77 | 1.6 | 11.3 | 0.00 | 0.00 | 0.00 | 76 | 1017.6 |
| 20260901154214 | 19 | 59 | 1.6 | 6.4 | 0.00 | 0.00 | 0.00 | 72 | 1017.6 |
| 20260901153003 | 20 | 67 | 1.6 | 6.4 | 0.00 | 0.00 | 0.00 | 67 | 1017.6 |
| 20260901152003 | 20 | 70 | 3.2 | 9.7 | 0.00 | 0.00 | 0.00 | 66 | 1017.2 |
| 20260901151003 | 20 | 72 | 3.2 | 22.5 | 0.00 | 0.00 | 0.00 | 67 | 1017.2 |
| 20260901150003 | 20 | 44 | 3.2 | 11.3 | 0.00 | 0.00 | 0.00 | 67 | 1017.6 |
| 20260901145003 | 19 | 287 | 1.6 | 11.3 | 0.00 | 0.00 | 0.00 | 68 | 1017.2 |
| 20260901144003 | 19 | 73 | 1.6 | 4.8 | 0.00 | 0.00 | 0.00 | 73 | 1017.2 |
| 20260901143003 | 18 | 98 | 1.6 | 6.4 | 0.00 | 0.00 | 0.00 | 74 | 1017.2 |
| 20260901142213 | 19 | 286 | 1.6 | 6.4 | 0.00 | 0.00 | 0.00 | 71 | 1017.2 |
| 20260901141003 | 20 | 307 | 3.2 | 9.7 | 0.00 | 0.00 | 0.00 | 69 | 1017.2 |
| 20260901140003 | 20 | 326 | 3.2 | 9.7 | 0.00 | 0.00 | 0.00 | 70 | 1016.9 |
| 20260901135003 | 20 | 275 | 1.6 | 4.8 | 0.00 | 0.00 | 0.00 | 70 | 1016.9 |
| 20260901134003 | 21 | 276 | 1.6 | 11.3 | 0.00 | 0.00 | 0.00 | 69 | 1016.9 |
| 20260901133003 | 20 | 292 | 1.6 | 4.8 | 0.00 | 0.00 | 0.00 | 68 | 1016.5 |
| 20260901132003 | 20 | 222 | 1.6 | 4.8 | 0.00 | 0.00 | 0.00 | 70 | 1016.9 |
| 20260901131003 | 19 | 248 | 0.0 | 4.8 | 0.00 | 0.00 | 0.00 | 71 | 1016.9 |
| 20260901130003 | 18 | 300 | 1.6 | 4.8 | 0.00 | 0.00 | 0.00 | 73 | 1016.9 |
| 20260901125003 | 18 | 312 | 1.6 | 6.4 | 0.00 | 0.00 | 0.00 | 73 | 1016.9 |
| 20260901124003 | 17 | 290 | 1.6 | 6.4 | 0.00 | 0.00 | 0.00 | 74 | 1016.9 |
| 20260901123003 | 17 | 281 | 1.6 | 4.8 | 0.00 | 0.00 | 0.00 | 75 | 1016.9 |
| 20260901122003 | 17 | 303 | 1.6 | 6.4 | 0.00 | 0.00 | 0.00 | 76 | 1016.9 |
| 20260901121214 | 16 | 287 | 1.6 | 4.8 | 0.00 | 0.00 | 0.00 | 75 | 1016.9 |
| 20260901120003 | 16 | 279 | 1.6 | 3.2 | 0.00 | 0.00 | 0.00 | 77 | 1016.9 |
| 20260901115003 | 15 | 248 | 0.0 | 3.2 | 0.00 | 0.00 | 0.00 | 79 | 1016.5 |
| 20260901114003 | 15 | 239 | 1.6 | 3.2 | 0.00 | 0.00 | 0.00 | 81 | 1016.9 |
| 20260901113003 | 15 | 261 | 0.0 | 1.6 | 0.00 | 0.00 | 0.00 | 82 | 1016.9 |
| 20260901112003 | 13 | 257 | 1.6 | 3.2 | 0.00 | 0.00 | 0.00 | 86 | 1016.5 |
| 20260901111003 | 13 | 265 | 0.0 | 3.2 | 0.00 | 0.00 | 0.00 | 89 | 1016.9 |
| 20260901110003 | 12 | 228 | 1.6 | 3.2 | 0.00 | 0.00 | 0.00 | 93 | 1016.5 |
| 20260901105003 | 12 | 223 | 0.0 | 4.8 | 0.00 | 0.00 | 0.00 | 96 | 1016.2 |
| 20260901104003 | 11 | 218 | 0.0 | 3.2 | 0.00 | 0.00 | 0.00 | 97 | 1016.5 |
| 20260901103003 | 11 | 226 | 0.0 | 1.6 | 0.00 | 0.00 | 0.00 | 97 | 1016.2 |
| 20260901102003 | 11 | 225 | 0.0 | 1.6 | 0.00 | 0.00 | 0.00 | 97 | 1015.8 |
| 20260901101003 | 11 | 230 | 0.0 | 1.6 | 0.00 | 0.00 | 0.00 | 97 | 1016.2 |
| 20260901100003 | 11 | 231 | 0.0 | 1.6 | 0.00 | 0.00 | 0.00 | 97 | 1016.2 |
| 20260901095003 | 11 | 0 | 0.0 | 0.0 | 0.00 | 0.00 | 0.00 | 97 | 1015.8 |
| 20260901094003 | 11 | 0 | 0.0 | 0.0 | 0.00 | 0.00 | 0.00 | 97 | 1016.2 |
| 20260901093003 | 11 | 0 | 0.0 | 0.0 | 0.00 | 0.00 | 0.00 | 97 | 1015.8 |
| 20260901092213 | 11 | 0 | 0.0 | 0.0 | 0.00 | 0.00 | 0.00 | 97 | 1015.8 |
| 20260901091003 | 11 | 294 | 0.0 | 1.6 | 0.00 | 0.00 | 0.00 | 97 | 1016.2 |
| 20260901090003 | 12 | 294 | 0.0 | 1.6 | 0.00 | 0.00 | 0.00 | 97 | 1015.8 |
| 20260901085003 | 12 | 294 | 0.0 | 1.6 | 0.00 | 0.00 | 0.00 | 97 | 1015.8 |
| 20260901084003 | 12 | 0 | 0.0 | 0.0 | 0.00 | 0.00 | 0.00 | 97 | 1015.8 |
| 20260901083003 | 12 | 0 | 0.0 | 0.0 | 0.00 | 0.00 | 0.00 | 96 | 1015.5 |
| 20260901082003 | 12 | 0 | 0.0 | 0.0 | 0.00 | 0.00 | 0.00 | 96 | 1015.5 |
| 20260901081003 | 12 | 0 | 0.0 | 0.0 | 0.00 | 0.00 | 0.00 | 96 | 1015.5 |
| 20260901080213 | 12 | 0 | 0.0 | 0.0 | 0.00 | 0.00 | 0.00 | 96 | 1015.5 |
| 20260901075003 | 13 | 0 | 0.0 | 0.0 | 0.00 | 0.00 | 0.00 | 95 | 1015.5 |
| 20260901074213 | 13 | 0 | 0.0 | 0.0 | 0.00 | 0.00 | 0.00 | 95 | 1015.2 |
| 20260901073003 | 13 | 0 | 0.0 | 0.0 | 0.00 | 0.00 | 0.00 | 94 | 1015.5 |
| 20260901072003 | 13 | 0 | 0.0 | 0.0 | 0.00 | 0.00 | 0.00 | 94 | 1015.5 |
| 20260901071003 | 13 | 0 | 0.0 | 0.0 | 0.00 | 0.00 | 0.00 | 95 | 1015.5 |
| 20260901070004 | 13 | 0 | 0.0 | 0.0 | 0.00 | 0.00 | 0.00 | 95 | 1015.8 |
| 20260901065003 | 13 | 0 | 0.0 | 0.0 | 0.00 | 0.00 | 0.00 | 95 | 1015.2 |
| 20260901064003 | 13 | 0 | 0.0 | 0.0 | 0.00 | 0.00 | 0.00 | 94 | 1015.2 |
| 20260901063003 | 13 | 0 | 0.0 | 0.0 | 0.00 | 0.00 | 0.00 | 94 | 1015.5 |
| 20260901062003 | 13 | 294 | 0.0 | 1.6 | 0.00 | 0.00 | 0.00 | 94 | 1015.5 |
| 20260901061003 | 13 | 294 | 0.0 | 1.6 | 0.00 | 0.00 | 0.00 | 94 | 1015.2 |
| 20260901060214 | 13 | 294 | 0.0 | 1.6 | 0.00 | 0.00 | 0.00 | 94 | 1015.2 |
| 20260901055214 | 13 | 294 | 0.0 | 1.6 | 0.00 | 0.00 | 0.00 | 95 | 1015.2 |
| 20260901054004 | 14 | 0 | 0.0 | 0.0 | 0.00 | 0.00 | 0.00 | 94 | 1015.2 |
| 20260901053003 | 14 | 0 | 0.0 | 0.0 | 0.00 | 0.00 | 0.00 | 94 | 1014.8 |
| 20260901052004 | 14 | 0 | 0.0 | 0.0 | 0.00 | 0.00 | 0.00 | 93 | 1015.2 |
| 20260901051003 | 15 | 0 | 0.0 | 0.0 | 0.00 | 0.03 | 0.00 | 92 | 1015.2 |
| 20260901050003 | 15 | 0 | 0.0 | 0.0 | 0.00 | 0.05 | 0.00 | 92 | 1015.2 |
| 20260901045003 | 15 | 0 | 0.0 | 0.0 | 0.00 | 0.05 | 0.00 | 92 | 1015.2 |
| 20260901044003 | 15 | 0 | 0.0 | 0.0 | 0.00 | 0.05 | 0.00 | 92 | 1015.5 |
| 20260901043213 | 15 | 0 | 0.0 | 0.0 | 0.00 | 0.05 | 0.00 | 92 | 1015.2 |
| 20260901042003 | 15 | 0 | 0.0 | 0.0 | 0.00 | 0.08 | 0.00 | 92 | 1014.8 |
| 20260901041003 | 15 | 0 | 0.0 | 0.0 | 0.00 | 0.08 | 0.00 | 92 | 1015.2 |
| 20260901040003 | 15 | 0 | 0.0 | 0.0 | 0.00 | 0.08 | 0.00 | 92 | 1014.8 |
| 20260901035003 | 15 | 0 | 0.0 | 0.0 | 0.00 | 0.08 | 0.00 | 91 | 1014.8 |
| 20260901034004 | 15 | 0 | 0.0 | 0.0 | 0.00 | 0.08 | 0.00 | 91 | 1014.8 |
| 20260901033003 | 15 | 0 | 0.0 | 0.0 | 0.00 | 0.08 | 0.00 | 91 | 1014.8 |
| 20260901032003 | 15 | 0 | 0.0 | 0.0 | 0.00 | 0.13 | 0.00 | 90 | 1014.8 |
| 20260901031003 | 15 | 0 | 0.0 | 0.0 | 0.00 | 0.13 | 0.00 | 89 | 1014.8 |
| 20260901030004 | 15 | 0 | 0.0 | 0.0 | 0.00 | 0.13 | 0.00 | 89 | 1014.8 |
| 20260901025213 | 15 | 0 | 0.0 | 0.0 | 0.00 | 0.13 | 0.13 | 89 | 1014.8 |
| 20260901024003 | 15 | 0 | 0.0 | 0.0 | 0.00 | 0.13 | 0.13 | 89 | 1015.2 |
| 20260901023003 | 15 | 0 | 0.0 | 0.0 | 0.00 | 0.13 | 0.13 | 89 | 1014.8 |
| 20260901022003 | 16 | 296 | 0.0 | 1.6 | 0.00 | 0.13 | 0.13 | 89 | 1014.8 |
| 20260901021003 | 16 | 0 | 0.0 | 0.0 | 0.00 | 0.13 | 0.13 | 89 | 1014.5 |
| 20260901020003 | 16 | 0 | 0.0 | 0.0 | 0.00 | 0.13 | 0.13 | 88 | 1014.5 |
| 20260901015004 | 16 | 0 | 0.0 | 0.0 | 0.00 | 0.13 | 0.13 | 89 | 1014.8 |
| 20260901014003 | 16 | 0 | 0.0 | 0.0 | 0.00 | 0.13 | 0.13 | 89 | 1014.5 |
| 20260901013003 | 16 | 0 | 0.0 | 0.0 | 0.00 | 0.13 | 0.13 | 89 | 1014.5 |
| 20260901012003 | 16 | 0 | 0.0 | 0.0 | 0.00 | 0.13 | 0.13 | 89 | 1014.5 |
| 20260901011004 | 16 | 0 | 0.0 | 0.0 | 0.00 | 0.13 | 0.13 | 89 | 1014.8 |
| 20260901010004 | 16 | 0 | 0.0 | 0.0 | 0.00 | 0.13 | 0.13 | 88 | 1014.5 |
| 20260901005003 | 16 | 0 | 0.0 | 0.0 | 0.00 | 0.13 | 0.13 | 87 | 1014.5 |
| 20260901004003 | 16 | 0 | 0.0 | 0.0 | 0.00 | 0.13 | 0.13 | 87 | 1014.5 |
| 20260901003003 | 16 | 0 | 0.0 | 0.0 | 0.00 | 0.13 | 0.13 | 87 | 1014.5 |
| 20260901002003 | 16 | 0 | 0.0 | 0.0 | 0.00 | 0.13 | 0.13 | 87 | 1014.5 |
| 20260901001003 | 16 | 0 | 0.0 | 0.0 | 0.00 | 0.13 | 0.13 | 88 | 1014.5 |
| 20260901000003 | 16 | 0 | 0.0 | 0.0 | 0.00 | 0.13 | 0.13 | 88 | 1014.1 |
| 20260831235003 | 16 | 0 | 0.0 | 0.0 | 0.00 | 0.13 | 0.13 | 87 | 1013.8 |
| 20260831234003 | 16 | 0 | 0.0 | 0.0 | 0.00 | 0.13 | 0.13 | 87 | 1013.8 |
| 20260831233003 | 16 | 0 | 0.0 | 0.0 | 0.00 | 0.13 | 0.13 | 86 | 1013.8 |
| 20260831232003 | 16 | 0 | 0.0 | 0.0 | 0.00 | 0.13 | 0.13 | 85 | 1013.8 |
| 20260831231213 | 16 | 0 | 0.0 | 0.0 | 0.00 | 0.13 | 0.13 | 85 | 1013.8 |
| 20260831230213 | 16 | 0 | 0.0 | 0.0 | 0.00 | 0.13 | 0.13 | 85 | 1013.8 |
| 20260831225003 | 16 | 0 | 0.0 | 0.0 | 0.00 | 0.13 | 0.13 | 83 | 1013.5 |
| 20260831224003 | 17 | 0 | 0.0 | 0.0 | 0.00 | 0.13 | 0.13 | 81 | 1013.5 |
| 20260831223003 | 17 | 0 | 0.0 | 0.0 | 0.00 | 0.13 | 0.13 | 79 | 1013.5 |
| 20260831222003 | 18 | 0 | 0.0 | 0.0 | 0.00 | 0.13 | 0.13 | 75 | 1013.5 |
| 20260831221003 | 18 | 0 | 0.0 | 0.0 | 0.00 | 0.13 | 0.13 | 71 | 1013.5 |
| 20260831220003 | 19 | 0 | 0.0 | 0.0 | 0.00 | 0.13 | 0.13 | 67 | 1013.1 |
| 20260831215003 | 20 | 316 | 0.0 | 1.6 | 0.00 | 0.13 | 0.13 | 61 | 1013.1 |
| 20260831214003 | 20 | 273 | 0.0 | 3.2 | 0.00 | 0.13 | 0.13 | 58 | 1013.5 |
| 20260831213004 | 21 | 288 | 0.0 | 3.2 | 0.00 | 0.13 | 0.13 | 55 | 1013.5 |
| 20260831212003 | 21 | 284 | 1.6 | 4.8 | 0.00 | 0.13 | 0.13 | 53 | 1013.5 |
| 20260831211003 | 22 | 298 | 1.6 | 6.4 | 0.00 | 0.13 | 0.13 | 53 | 1013.1 |
| 20260831210003 | 23 | 247 | 1.6 | 3.2 | 0.00 | 0.13 | 0.13 | 51 | 1013.5 |
| 20260831205003 | 23 | 305 | 1.6 | 3.2 | 0.00 | 0.13 | 0.13 | 48 | 1013.5 |
| 20260831204003 | 23 | 236 | 1.6 | 6.4 | 0.00 | 0.13 | 0.13 | 48 | 1013.1 |
| 20260831203003 | 23 | 314 | 1.6 | 11.3 | 0.00 | 0.13 | 0.13 | 49 | 1013.1 |
| 20260831202003 | 23 | 284 | 1.6 | 6.4 | 0.00 | 0.13 | 0.13 | 48 | 1013.1 |
| 20260831201003 | 23 | 298 | 1.6 | 6.4 | 0.00 | 0.13 | 0.13 | 48 | 1013.1 |
| 20260831200214 | 22 | 279 | 1.6 | 6.4 | 0.00 | 0.13 | 0.13 | 49 | 1013.1 |
| 20260831195214 | 22 | 326 | 1.6 | 11.3 | 0.00 | 0.13 | 0.13 | 49 | 1013.1 |
| 20260831194214 | 22 | 280 | 1.6 | 9.7 | 0.00 | 0.13 | 0.13 | 48 | 1013.1 |
| 20260831193003 | 23 | 312 | 1.6 | 4.8 | 0.00 | 0.13 | 0.13 | 48 | 1013.1 |
| 20260831192003 | 23 | 271 | 1.6 | 6.4 | 0.00 | 0.13 | 0.13 | 46 | 1013.1 |
| 20260831191214 | 23 | 277 | 1.6 | 6.4 | 0.00 | 0.13 | 0.13 | 47 | 1012.8 |
| 20260831190003 | 22 | 266 | 1.6 | 9.7 | 0.00 | 0.13 | 0.13 | 46 | 1012.8 |
| 20260831185003 | 22 | 306 | 1.6 | 6.4 | 0.00 | 0.13 | 0.13 | 48 | 1012.8 |
| 20260831184214 | 22 | 316 | 1.6 | 11.3 | 0.00 | 0.13 | 0.13 | 52 | 1012.8 |
| 20260831183003 | 22 | 329 | 1.6 | 6.4 | 0.00 | 0.13 | 0.13 | 49 | 1012.8 |
| 20260831182003 | 22 | 329 | 3.2 | 9.7 | 0.00 | 0.13 | 0.13 | 48 | 1012.8 |